COSMOS 2428 (31792 NORAD) Tracking and Keplerian Element Data

This shows tracking and keplerian element data for the satellite.

Feedback or suggestion? Click here.




ElementValue
Catalog31792
NameCOSMOS 2428
Epoch Orbit90777
Epoch Day34.94101477
Epoch Year2025
RAAN320.3721
Inclination70.9456
Eccentricity0.0002924
Argument of Perigee75.6755
Mean Anonmoly284.4691
Mean Motion14.12852437
Decay Rate-4E-08
L11 31792U 07029A 25034.94101477 -.00000004 00000+0 23527-4 0 9994
L22 31792 70.9456 320.3721 0002924 75.6755 284.4691 14.12852437907776



Live tracking and technical data element details for COSMOS 2428 (NORAD 31792). COSMOS 2428 can be tracked NOW for your location showing map with azimuth and elevation plus other details from your city location.







IsCatalogInMostPopularTable: catalog: 31792, numindb: 674
Update: records affected: 1



GetName: 31792 COSMOS 2428

Hit Count: updated at: Wed, 30 Apr 2025 16:07:07 GMT